TimeEDT,TemperatureF,Dew PointF,Humidity,Sea Level PressureIn,VisibilityMPH,Wind Direction,Wind SpeedMPH,Gust SpeedMPH,PrecipitationIn,Events,Conditions,WindDirDegrees,DateUTC
12:54 AM,54.0,50.0,86,30.14,10.0,NE,8.1,-,N/A,,Overcast,50,2012-10-08 04:54:00
1:21 AM,53.6,50.0,88,30.14,10.0,NE,9.2,-,N/A,,Overcast,50,2012-10-08 05:21:00
1:31 AM,53.6,48.2,82,30.14,10.0,ENE,8.1,-,N/A,,Overcast,60,2012-10-08 05:31:00
1:54 AM,54.0,48.9,83,30.14,10.0,NE,8.1,-,N/A,,Overcast,50,2012-10-08 05:54:00
2:54 AM,53.1,46.0,77,30.14,10.0,NE,6.9,-,N/A,,Overcast,50,2012-10-08 06:54:00
3:54 AM,53.1,46.9,80,30.13,10.0,NE,9.2,-,N/A,,Overcast,40,2012-10-08 07:54:00
4:54 AM,52.0,46.0,80,30.14,10.0,NNE,8.1,-,N/A,,Overcast,20,2012-10-08 08:54:00
5:54 AM,52.0,45.0,77,30.16,10.0,NNE,4.6,-,N/A,,Overcast,20,2012-10-08 09:54:00
6:54 AM,52.0,45.0,77,30.17,10.0,NNE,8.1,-,0.00,,Overcast,30,2012-10-08 10:54:00
7:54 AM,51.1,43.0,74,30.18,10.0,NE,13.8,-,N/A,,Overcast,40,2012-10-08 11:54:00
8:54 AM,51.1,42.1,71,30.18,10.0,NE,12.7,-,N/A,,Overcast,40,2012-10-08 12:54:00
9:54 AM,50.0,43.0,77,30.18,10.0,NE,11.5,-,N/A,,Overcast,50,2012-10-08 13:54:00
10:54 AM,51.1,44.1,77,30.23,10.0,Variable,5.8,-,0.00,,Overcast,0,2012-10-08 14:54:00
11:34 AM,51.8,46.4,82,30.20,10.0,NE,8.1,-,0.00,,Overcast,40,2012-10-08 15:34:00
11:46 AM,51.8,46.4,82,30.20,10.0,NE,10.4,-,0.00,,Overcast,40,2012-10-08 15:46:00
11:54 AM,52.0,46.0,80,30.20,10.0,NNE,8.1,-,0.00,,Overcast,30,2012-10-08 15:54:00
12:54 PM,52.0,46.0,80,30.19,10.0,NNE,9.2,-,N/A,,Overcast,30,2012-10-08 16:54:00
1:54 PM,52.0,46.0,80,30.16,10.0,NE,13.8,-,N/A,,Overcast,50,2012-10-08 17:54:00
2:24 PM,51.8,46.4,82,30.16,10.0,NE,12.7,-,N/A,,Overcast,50,2012-10-08 18:24:00
2:54 PM,52.0,46.0,80,30.15,10.0,NE,11.5,-,N/A,,Overcast,50,2012-10-08 18:54:00
3:54 PM,51.1,46.9,86,30.14,7.0,NE,12.7,-,N/A,,Overcast,40,2012-10-08 19:54:00
4:32 PM,50.0,48.2,94,30.14,4.0,NNE,6.9,-,N/A,,Overcast,20,2012-10-08 20:32:00
4:46 PM,50.0,48.2,94,30.14,2.0,NE,9.2,-,0.00,Rain,Light Rain,40,2012-10-08 20:46:00
4:54 PM,50.0,48.0,93,30.14,4.0,NNE,6.9,-,0.00,Rain,Light Rain,30,2012-10-08 20:54:00
5:16 PM,48.2,48.2,100,30.14,3.0,North,8.1,-,0.00,Rain,Light Rain,10,2012-10-08 21:16:00
5:54 PM,48.9,46.9,93,30.15,5.0,NE,9.2,-,0.00,,Overcast,40,2012-10-08 21:54:00
6:06 PM,48.2,46.4,93,30.14,8.0,NNE,6.9,-,N/A,,Overcast,20,2012-10-08 22:06:00
6:42 PM,48.2,46.4,93,30.14,10.0,NE,8.1,-,N/A,,Overcast,40,2012-10-08 22:42:00
6:54 PM,48.9,46.0,90,30.15,10.0,NNE,10.4,-,N/A,,Overcast,30,2012-10-08 22:54:00
7:54 PM,48.9,46.0,90,30.16,8.0,NE,10.4,-,N/A,,Overcast,50,2012-10-08 23:54:00
8:04 PM,48.2,46.4,93,30.16,7.0,NE,6.9,-,N/A,,Overcast,40,2012-10-09 00:04:00
8:22 PM,48.2,46.4,93,30.17,5.0,NNE,6.9,-,N/A,,Overcast,30,2012-10-09 00:22:00
8:54 PM,48.0,46.0,93,30.17,9.0,NNE,8.1,-,N/A,,Overcast,30,2012-10-09 00:54:00
9:50 PM,46.4,44.6,93,30.17,10.0,ENE,11.5,-,N/A,,Overcast,60,2012-10-09 01:50:00
10:02 PM,46.4,44.6,93,30.17,10.0,NE,8.1,-,N/A,,Overcast,50,2012-10-09 02:02:00
10:22 PM,48.2,44.6,87,30.17,10.0,NE,6.9,-,N/A,,Overcast,40,2012-10-09 02:22:00
10:54 PM,46.9,46.0,97,30.18,5.0,NNE,5.8,-,N/A,,Overcast,30,2012-10-09 02:54:00
11:54 PM,46.9,46.0,97,30.18,6.0,North,8.1,-,N/A,,Overcast,10,2012-10-09 03:54:00